Tracking 30415 objects as of 14-May-2025
HD Live streaming from Space Station
objects crossing your sky now

THORAD AGENA D DEB

Track THORAD AGENA D DEB now!
10-day predictions


NORAD ID: 4971
Int'l Code: 1970-025GR
Perigee: 1,067.4 km
Apogee: 1,593.3 km
Inclination: 99.9 °
Period: 112.1 minutes
Semi major axis: 7701 km
RCS: 0.0605 m2 (small)
Launch date: April 8, 1970
Source: United States (US)
Launch site: AIR FORCE WESTERN TEST RANGE (AFWTR)

Note: This is SATELLITE DEBRIS
Your satellite tracking list
Your tracking list is empty




NASA's NSSDC Master Catalog

Two Line Element Set (TLE):
1  4971U 70025GR  25133.88676758  .00000176  00000-0  68976-3 0  9997
2  4971  99.8998  96.9767 0341451 347.6879  66.1816 12.84552478576856
Source of the keplerian elements: AFSPC